Location: Unspecified
(0.0000°N, 0.0000°E)
Time: 15:59:39
(UTC+00:00)

Cosmos 80 Rocket - Pass Details

Date: 03 October 2021
Orbit: 1361 x 1510 km, 56.1° (Epoch: 22 October)

Event Time Altitude Azimuth Distance (km) Brightness Sun altitude
Rises 19:56:27 0° 311° (NW) 4,584 8.6 -31.8°
Reaches altitude 10° 19:59:46 10° 303° (WNW) 3,587 8.0 -32.6°
Maximum altitude 20:07:39 36° 240° (WSW) 2,125 6.5 -34.6°
Drops below altitude 10° 20:15:21 10° 176° (S) 3,491 7.4 -36.5°
Sets 20:18:34 0° 167° (SSE) 4,448 7.9 -37.3°
